Back to catalog

FENGYUN 1C DEB

AlivePO
NORAD 31743·DEBRIS·🇨🇳 China

Launched May 10, 1999 from Taiyuan Satellite Launch Center

Loading…

Next Passes (next 24 hours)

TLE

FreshSource: Space-Track

Epoch: Sep 14, 2026, 08:07 UTC

1 31743U 99025CES 26257.33874977  .00002866  00000-0  10455-2 0  9992
2 31743  99.1541 205.3978 0037611 135.5609  16.2776 14.33523671995861

Track FENGYUN 1C DEB in real time with AllMySat

Download on the App Store